Location: Casalecchio di Reno
(44.4760°N, 11.2757°E)
Time: 01:05:36
(UTC+02:00)

UWE-3 - Pass Details

Date: 22 June 2024
Orbit: 566 x 652 km, 97.8° (Epoch: 17 July)

Event Time Altitude Azimuth Distance (km) Brightness Sun altitude
Rises 03:13:50 0° 21° (NNE) 2,883 ? -17.0°
Reaches altitude 10° 03:16:13 10° 30° (NNE) 1,958 ? -16.8°
Maximum altitude 03:20:06 34° 96° (E) 976 ? -16.5°
Enters shadow 03:23:00 15° 157° (SSE) 1,585 ? -16.2°
